Showing default

COSMOS 1930, 18943

Orbit data source: Space-Track

COSMOS 1930, 18943 is a payload satellite owned by UNKS (CIS) in LEO that was launched on Fri, 11 Mar 1988 UTC via a KOSMOS 11K65M launch vehicle from the Plesetsk Missile And Space Complex (PKMTR). Payload-class satellites include a variety of spacecraft equipped with specific instruments for various scientific and technological missions. These include communications satellites like Starlink; space stations such as the ISS; scientific satellites like the Hubble; Earth observation satellites from companies like Planet Labs, Umbra, and HawkEye 360; GPS; miniature CubeSats for education and research; and military/defense satellites.

Loading next visibility...
Identifier
18943, 1988-016G
Orbit
LEO
Country
Flag of CISCIS
Related business
Manufacturer
NPO PM
Mission
Defense Communications
Bus & Motor
STRELA-1 11F625, Unknown motor
Mass
60 kg wet, 60 kg dry
Launch date (UTC)
1988-03-11 (38 years ago)
Launch vehicle
KOSMOS 11K65M
Launch site
Plesetsk Missile And Space Complex (PKMTR)
Object type
Payload
Rocket body
Debris
Shape & HBR
Sphere, 0.4 m
Radar Cross Section
0.588 m², Medium (>0.1 m² and < 1m²)

Expand to show TLE details & history
Last TLE update: 16 hours ago

TLE from 16 hours ago
0 COSMOS 1930
1 18943U 88016G   25348.95403575  .00000001  00000-0  10351-3 0  9992
2 18943  74.0062 320.4009 0029134  17.7929  49.3144 12.56637238732299
Epoch: 2025-12-14T22:53Z
TLE epoch observation values (Epoch: 2025-12-14T22:53:48.688Z)
Latitude
62.62041°
Longitude
-73.49541°
Altitude
1,432.425 km
Speed
7.158 km/s
True Right ascension
23h 35m 16s
True Declination
62° 29' 31"
Sunlit
Object was in daylight at epoch
Visualization orbit readout
Latitude
Unknown
Longitude
Unknown
Altitude
Unknown
Speed
Unknown
Apparent Right ascension
Unknown
Apparent Declination
Unknown
Sunlit
N/A
Visualization observer readout
Local Sidereal Time
13:19:56
Azimuth
Unknown
Elevation
Unknown
Doppler factor
Unknown
Orbital elements
Apogee altitude
1,457.446 km
Perigee altitude
1,411.923 km
Semi-major axis
7,812.822 km
Eccentricity
0.00291
Inclination
74.0062°
RAAN
320.4009°
Arg. of periapsis
17.7929°
True anomaly
49.56816°
Mean anomaly
49.3144°
Eccentric anomaly
49.44122°
Mean motion
3.14291 °/min
Orbital period
114.54 mins
BSTAR
0.00010351
Loading maneuver chart data...
Computing Atmospheric mass density...
Loading historical data...
Loading historical data...
Loading historical data...
Loading historical data...
Loading historical data...
Loading historical data...
Loading historical data...

Documentation

Showing up to 5 results
|